Home > Weather > Ganja > Past weeks

Flag for Azerbaijan Past Weather in Ganja, Azerbaijan — Yesterday and Last 2 Weeks

Now
79 °F

Partly sunny.


Feels Like: 80 °F
Forecast: 70 / 83 °F
Wind: 13 mph from East

Location: Gyanca Airport

Current Time: Jul 28, 2016 at 4:34:23 PM

Latest Report: Jul 28, 2016 at 4:00 PM


Visibility: N/A

Pressure: 29.89 "Hg

Humidity: 51%

Dew Point: 59 °F

Location of GanjaLocation

Past Weather in Ganja — Graph

°F

Ganja Temperature Yesterday

Maximum temperature yesterday: 82 °F (at 3:30 PM)
Minimum temperature yesterday: 70 °F (at 4:30 AM)
Average temperature yesterday: 76 °F

High & Low Weather Summary for the Past Weeks

 TemperatureHumidityPressure
High100 °F (Jul 17, 1:30 PM)88% (Jul 28, 7:00 AM)30.09 "Hg (Jul 28, 7:00 AM)
Low66 °F (Jul 14, 3:00 AM)17% (Jul 17, 2:00 PM)29.56 "Hg (Jul 19, 2:30 PM)
Average82 °F45%29.84 "Hg
* Reported Jul 13 3:00 PM — Jul 28 3:30 PM, Ganja, Weather by CustomWeather, © 2016

Note: Actual official high and low records may vary slightly from our data, if they occured in-between our weather recording intervals... More about our weather records

Advertising

Ganja Weather History for the Previous 24 Hours

Scroll right to see more
 ConditionsComfort  
Time TempWeatherWind HumidityBarometerVisibility
3:30 PM
Thu, Jul 28
77 °FPartly sunny.10 mph54%29.92 "HgN/A
3:00 PM79 °FPartly sunny.12 mph54%29.92 "HgN/A
2:30 PM79 °FPartly sunny.13 mph54%29.92 "HgN/A
2:00 PM79 °FPartly sunny.14 mph54%29.92 "HgN/A
1:30 PM79 °FPartly sunny.14 mph54%29.92 "HgN/A
1:00 PM77 °FPartly sunny.12 mph54%29.95 "HgN/A
12:30 PM77 °FPartly sunny.10 mph51%29.95 "HgN/A
12:00 PM75 °FPartly sunny.12 mph50%29.95 "HgN/A
11:30 AM73 °FPartly sunny.9 mph57%29.95 "HgN/A
11:00 AM73 °FPartly sunny.9 mph65%29.95 "HgN/A
10:30 AM72 °FPartly sunny.3 mph73%29.95 "HgN/A
10:00 AM72 °FPartly sunny.No wind78%29.95 "HgN/A
9:00 AM70 °FPartly sunny.6 mph83%29.92 "HgN/A
8:30 AM70 °FPartly sunny.6 mph83%29.92 "HgN/A
8:00 AM72 °FOvercast.No wind78%29.92 "HgN/A
7:30 AM70 °FOvercast.2 mph83%29.92 "HgN/A
7:00 AM70 °FOvercast.No wind88%29.92 "HgN/A
5:30 AM72 °FSprinkles. Partly cloudy.5 mph78%29.86 "HgN/A
5:00 AM72 °FThundershowers. Passing clouds.5 mph78%29.89 "HgN/A
4:30 AM73 °FThundershowers. Passing clouds.7 mph69%29.89 "HgN/A
3:30 AM75 °FPassing clouds.6 mph65%29.89 "HgN/A
3:00 AM75 °FPassing clouds.1 mph65%29.89 "HgN/A
2:30 AM75 °FPassing clouds.5 mph65%29.89 "HgN/A
2:00 AM75 °FPassing clouds.8 mph65%29.89 "HgN/A
1:30 AM75 °FPassing clouds.6 mph65%29.89 "HgN/A
1:00 AM75 °FPassing clouds.5 mph65%29.89 "HgN/A
12:30 AM75 °FPassing clouds.5 mph61%29.89 "HgN/A
11:30 PM
Wed, Jul 27
75 °FPassing clouds.No wind61%29.92 "HgN/A
11:00 PM77 °FPassing clouds.5 mph57%29.92 "HgN/A
10:30 PM77 °FPassing clouds.5 mph57%29.89 "HgN/A
10:00 PM77 °FWarm.N/A57%29.89 "HgN/A
9:30 PM77 °FPassing clouds.6 mph57%29.89 "HgN/A
9:00 PM79 °FPartly sunny.8 mph51%29.89 "HgN/A
8:00 PM81 °FPartly sunny.8 mph51%29.89 "HgN/A
7:00 PM81 °FPartly sunny.12 mph51%29.86 "HgN/A
6:30 PM82 °FPartly sunny.12 mph48%29.86 "HgN/A
6:00 PM82 °FPartly sunny.10 mph45%29.89 "HgN/A
5:30 PM82 °FPartly sunny.6 mph45%29.89 "HgN/A
4:30 PM82 °FPartly sunny.5 mph48%29.89 "HgN/A
4:00 PM82 °FPartly sunny.8 mph45%29.89 "HgN/A
Weather by CustomWeather, © 2016

See weather overviewHow to use our weather pages